SWA1122 KGEG-KDAL

Flight info

Callsign SWA1122
Flight time N/A
Altitude 39000
Route GEG DNW SWEAT CKW PENEY BRK REPPA STNLI JFRYE5
Aircraft B737/M-SDE2E3FGHIRWXY/LB1

Departure

Time 2026-04-20 23:22
Airport Spokane International Airport (KGEG)

Arrival

Time N/A
Airport Dallas Love Field (KDAL)
Time Latitude Longitude Altitude Speed Heading
2026-04-20 23:12 47.62325 -117.53840 2360 ft 0 kts
2026-04-20 23:15 47.62313 -117.53841 2360 ft 2 kts
2026-04-20 23:15 47.62298 -117.53841 2360 ft 2 kts
2026-04-20 23:15 47.62283 -117.53842 2360 ft 2 kts 20°
2026-04-20 23:15 47.62270 -117.53854 2360 ft 2 kts 49°
2026-04-20 23:16 47.62263 -117.53874 2361 ft 2 kts 79°
2026-04-20 23:16 47.62262 -117.53885 2361 ft 1 kts 94°
2026-04-20 23:16 47.62263 -117.53890 2361 ft 0 kts 90°
2026-04-20 23:18 47.62263 -117.53883 2361 ft 3 kts 90°
2026-04-20 23:18 47.62262 -117.53831 2360 ft 6 kts 94°
2026-04-20 23:18 47.62236 -117.53771 2360 ft 9 kts 137°
2026-04-20 23:18 47.62188 -117.53669 2360 ft 15 kts 89°
2026-04-20 23:19 47.62260 -117.53526 2359 ft 20 kts 45°
2026-04-20 23:19 47.62363 -117.53371 2357 ft 21 kts 45°
2026-04-20 23:19 47.62472 -117.53209 2354 ft 22 kts 46°
2026-04-20 23:19 47.62580 -117.53046 2352 ft 23 kts 45°
2026-04-20 23:20 47.62696 -117.52872 2348 ft 24 kts 46°
2026-04-20 23:20 47.62814 -117.52692 2348 ft 24 kts 46°
2026-04-20 23:20 47.62782 -117.52529 2346 ft 18 kts 137°
2026-04-20 23:20 47.62679 -117.52492 2348 ft 16 kts 224°
2026-04-20 23:21 47.62575 -117.52651 2349 ft 41 kts 225°
2026-04-20 23:21 47.62202 -117.53212 2357 ft 110 kts 225°
2026-04-20 23:21 47.61518 -117.54238 2381 ft 165 kts 225°
2026-04-20 23:21 47.60694 -117.55474 2957 ft 172 kts 225°
2026-04-20 23:22 47.59851 -117.56737 3590 ft 180 kts 225°
2026-04-20 23:22 47.58978 -117.58113 4238 ft 187 kts 226°
2026-04-20 23:22 47.57933 -117.59285 4803 ft 200 kts 202°
2026-04-20 23:22 47.56497 -117.59466 5251 ft 221 kts 169°
2026-04-20 23:23 47.55018 -117.58665 5852 ft 235 kts 150°
2026-04-20 23:23 47.53757 -117.57024 6405 ft 252 kts 130°
2026-04-20 23:23 47.52714 -117.54900 7066 ft 264 kts 122°
2026-04-20 23:23 47.51756 -117.52530 7651 ft 280 kts 121°
2026-04-20 23:24 47.50732 -117.49991 8307 ft 293 kts 123°
2026-04-20 23:24 47.49642 -117.47452 9300 ft 294 kts 124°
2026-04-20 23:24 47.48534 -117.44972 10196 ft 298 kts 126°
2026-04-20 23:24 47.47356 -117.42380 10880 ft 312 kts 126°
2026-04-20 23:25 47.46124 -117.39675 11499 ft 327 kts 126°
2026-04-20 23:25 47.44830 -117.36834 12092 ft 344 kts 126°
2026-04-20 23:25 47.43450 -117.33798 12732 ft 359 kts 127°
2026-04-20 23:25 47.42046 -117.30710 13280 ft 376 kts 127°
2026-04-20 23:26 47.40568 -117.27455 14085 ft 385 kts 127°
2026-04-20 23:26 47.39066 -117.24146 15036 ft 390 kts 127°
2026-04-20 23:26 47.37571 -117.20855 15947 ft 396 kts 127°
2026-04-20 23:26 47.36024 -117.17462 16844 ft 401 kts 127°
2026-04-20 23:27 47.34476 -117.14069 17773 ft 405 kts 128°
2026-04-20 23:27 47.32909 -117.10638 18640 ft 410 kts 127°
2026-04-20 23:27 47.31293 -117.07107 19433 ft 417 kts 128°
2026-04-20 23:27 47.29668 -117.03564 20266 ft 421 kts 128°
2026-04-20 23:28 47.28034 -117.00005 21062 ft 426 kts 128°
2026-04-20 23:28 47.26387 -116.96420 21843 ft 430 kts 128°
2026-04-20 23:28 47.24703 -116.92760 22597 ft 435 kts 128°
2026-04-20 23:28 47.23000 -116.89064 23261 ft 441 kts 128°
2026-04-20 23:29 47.21269 -116.85310 23943 ft 446 kts 128°
2026-04-20 23:29 47.19527 -116.81541 24601 ft 452 kts 128°
2026-04-20 23:29 47.17740 -116.77679 25214 ft 458 kts 128°
2026-04-20 23:29 47.15955 -116.73825 25825 ft 462 kts 128°
2026-04-20 23:30 47.14140 -116.69907 26438 ft 467 kts 128°
2026-04-20 23:30 47.12306 -116.65957 26941 ft 473 kts 128°
2026-04-20 23:30 47.10462 -116.61991 27467 ft 479 kts 129°
2026-04-20 23:30 47.08626 -116.58046 28018 ft 483 kts 129°
2026-04-20 23:31 47.06748 -116.54016 28539 ft 488 kts 128°
2026-04-20 23:31 47.04806 -116.49857 28970 ft 495 kts 129°
2026-04-20 23:31 47.02839 -116.45648 29559 ft 498 kts 129°
2026-04-20 23:31 47.00989 -116.41694 30269 ft 496 kts 129°
2026-04-20 23:32 46.99045 -116.37540 30965 ft 496 kts 129°
2026-04-20 23:32 46.97089 -116.33368 31613 ft 496 kts 130°
2026-04-20 23:32 46.95142 -116.29224 32195 ft 496 kts 130°
2026-04-20 23:32 46.93179 -116.25054 32706 ft 498 kts 130°
2026-04-20 23:33 46.91177 -116.20811 33260 ft 499 kts 131°
2026-04-20 23:33 46.89201 -116.16628 33838 ft 498 kts 131°
2026-04-20 23:33 46.87249 -116.12499 34546 ft 497 kts 131°
2026-04-20 23:33 46.85278 -116.08334 35286 ft 494 kts 131°
2026-04-20 23:34 46.83343 -116.04248 36023 ft 491 kts 131°
2026-04-20 23:34 46.81397 -116.00148 36671 ft 490 kts 131°
2026-04-20 23:34 46.79450 -115.96058 37238 ft 490 kts 131°
2026-04-20 23:34 46.77519 -115.92006 37858 ft 487 kts 131°
2026-04-20 23:35 46.75629 -115.88036 38848 ft 475 kts 131°
2026-04-20 23:35 46.71928 -115.80277 39979 ft 469 kts 131°
2026-04-20 23:36 46.68133 -115.72406 40145 ft 482 kts 131°
2026-04-20 23:36 46.66186 -115.68379 40304 ft 487 kts 131°
2026-04-20 23:36 46.64264 -115.64399 40749 ft 485 kts 130°
2026-04-20 23:36 46.62342 -115.60414 40955 ft 486 kts 130°
2026-04-20 23:37 46.60400 -115.56393 40952 ft 485 kts 130°
2026-04-20 23:37 46.56524 -115.48378 40972 ft 482 kts 130°
2026-04-20 23:38 46.52668 -115.40425 40986 ft 482 kts 130°
2026-04-20 23:38 46.48775 -115.32433 41003 ft 483 kts 131°
2026-04-20 23:39 46.44926 -115.24542 41012 ft 482 kts 131°
2026-04-20 23:39 46.41051 -115.16629 41017 ft 484 kts 131°
2026-04-20 23:40 46.37151 -115.08679 41035 ft 485 kts 131°
2026-04-20 23:40 46.33250 -115.00756 41028 ft 483 kts 131°
2026-04-20 23:41 46.29339 -114.92833 41029 ft 483 kts 131°
2026-04-20 23:41 46.25441 -114.84967 41037 ft 483 kts 131°
2026-04-20 23:42 46.21523 -114.77073 41047 ft 482 kts 130°
2026-04-20 23:42 46.17625 -114.69246 41053 ft 485 kts 130°
2026-04-20 23:43 46.13659 -114.61303 41060 ft 486 kts 130°
2026-04-20 23:43 46.09723 -114.53440 41073 ft 488 kts 130°
2026-04-20 23:44 46.05775 -114.45577 41066 ft 487 kts 130°
2026-04-20 23:44 46.01793 -114.37666 41066 ft 486 kts 130°
2026-04-20 23:45 45.97827 -114.29810 41074 ft 489 kts 131°